TimePDT,TemperatureF,Dew PointF,Humidity,Sea Level PressureIn,VisibilityMPH,Wind Direction,Wind SpeedMPH,Gust SpeedMPH,PrecipitationIn,Events,Conditions,WindDirDegrees,DateUTC
12:56 AM,54.0,48.9,83,30.08,10.0,West,18.4,-,N/A,,Overcast,270,2013-05-26 07:56:00
1:56 AM,54.0,48.9,83,30.08,10.0,West,18.4,-,N/A,,Overcast,270,2013-05-26 08:56:00
2:56 AM,54.0,50.0,86,30.09,6.0,West,12.7,-,N/A,,Overcast,270,2013-05-26 09:56:00
3:56 AM,54.0,51.1,90,30.08,5.0,West,17.3,-,N/A,,Overcast,260,2013-05-26 10:56:00
4:56 AM,53.1,50.0,89,30.09,6.0,West,13.8,-,N/A,,Overcast,260,2013-05-26 11:56:00
5:38 AM,53.6,50.0,88,30.09,4.0,West,12.7,-,N/A,,Overcast,260,2013-05-26 12:38:00
5:56 AM,53.1,50.0,89,30.09,5.0,West,16.1,-,N/A,,Overcast,260,2013-05-26 12:56:00
6:56 AM,53.1,50.0,89,30.11,8.0,West,13.8,-,N/A,,Overcast,270,2013-05-26 13:56:00
7:56 AM,55.0,50.0,83,30.12,10.0,West,15.0,-,N/A,,Mostly Cloudy,270,2013-05-26 14:56:00
8:56 AM,55.9,48.9,77,30.13,10.0,West,11.5,-,N/A,,Mostly Cloudy,280,2013-05-26 15:56:00
9:23 AM,57.2,50.0,77,30.13,10.0,West,15.0,-,N/A,,Mostly Cloudy,280,2013-05-26 16:23:00
9:56 AM,60.1,50.0,69,30.13,10.0,West,16.1,25.3,N/A,,Scattered Clouds,260,2013-05-26 16:56:00
10:56 AM,62.1,48.9,62,30.13,10.0,West,19.6,26.5,N/A,,Scattered Clouds,260,2013-05-26 17:56:00
11:56 AM,64.0,48.9,58,30.14,10.0,West,20.7,-,N/A,,Scattered Clouds,270,2013-05-26 18:56:00
12:56 PM,64.9,48.0,54,30.13,10.0,West,24.2,-,N/A,,Scattered Clouds,260,2013-05-26 19:56:00
1:56 PM,64.9,48.9,56,30.12,10.0,West,24.2,-,N/A,,Scattered Clouds,260,2013-05-26 20:56:00
2:56 PM,64.9,48.9,56,30.12,10.0,West,19.6,-,N/A,,Scattered Clouds,270,2013-05-26 21:56:00
3:45 PM,64.4,48.2,56,30.12,10.0,West,20.7,28.8,N/A,,Scattered Clouds,280,2013-05-26 22:45:00
3:56 PM,63.0,48.9,60,30.12,10.0,West,21.9,-,N/A,,Scattered Clouds,270,2013-05-26 22:56:00
4:56 PM,63.0,48.9,60,30.10,10.0,West,24.2,31.1,N/A,,Scattered Clouds,280,2013-05-26 23:56:00
5:56 PM,61.0,48.9,64,30.10,10.0,West,27.6,32.2,N/A,,Scattered Clouds,270,2013-05-27 00:56:00
6:56 PM,59.0,48.9,69,30.10,10.0,West,27.6,33.4,N/A,,Scattered Clouds,270,2013-05-27 01:56:00
7:56 PM,55.9,48.9,77,30.10,10.0,West,20.7,26.5,N/A,,Scattered Clouds,260,2013-05-27 02:56:00
8:56 PM,55.0,48.9,80,30.12,10.0,WSW,11.5,25.3,N/A,,Mostly Cloudy,250,2013-05-27 03:56:00
9:56 PM,55.0,48.9,80,30.14,10.0,West,11.5,-,N/A,,Overcast,260,2013-05-27 04:56:00
10:56 PM,55.0,48.9,80,30.16,10.0,West,10.4,-,N/A,,Mostly Cloudy,260,2013-05-27 05:56:00
11:04 PM,55.4,48.2,77,30.16,10.0,West,9.2,-,N/A,,Mostly Cloudy,280,2013-05-27 06:04:00
11:56 PM,55.0,48.9,80,30.16,10.0,West,10.4,-,N/A,,Overcast,270,2013-05-27 06:56:00